GFSSW_con_3kmhel_138.txt.gz
Helicity
34 26 27 31 28 34 38 37 35 36 45 53 54 58 63 69 45 19 45 55 37 34 18 18 -8 -9 -2 -4 -14 30 35 14 -9 -34 86 113 203 117 87 54 48 48 48 78 24
48 37 31 32 33 26 31 30 33 34 44 53 66 67 68 64 20 -1 65 48 40 33 66 71 58 50 19 -8 5 32 30 0 0 68 87 101 150 171 121 87 79 53 35 60 70
55 49 42 30 33 23 13 16 19 28 40 52 68 65 74 59 20 129 54 44 8 -8 -13 10 11 10 12 -7 -5 16 29 10 51 85 128 93 74 87 84 79 45 99 116 111 113
83 71 55 41 33 26 15 18 7 12 32 55 81 90 94 40 105 71 22 4 -27 1 -8 16 13 18 28 30 11 45 42 46 52 96 75 79 71 51 39 20 39 55 60 77 77
95 85 73 52 40 34 18 13 17 11 20 59 74 90 79 46 83 103 45 0 0 32 47 57 44 63 45 96 117 80 53 35 31 67 58 37 38 30 16 16 36 33 52 50 35
130 104 86 82 65 46 28 15 22 16 12 42 68 115 46 48 154 95 46 29 41 31 55 62 87 75 59 57 63 67 62 40 26 26 21 27 68 26 -16 30 107 62 36 23 39
137 168 137 67 69 65 48 28 29 32 16 22 37 57 55 41 103 91 74 76 77 60 63 62 57 56 110 43 114 70 43 34 17 41 114 154 14 37 20 35 60 37 33 34 43
158 167 142 109 90 73 58 46 41 38 26 25 25 47 47 120 121 93 68 72 51 55 50 58 36 29 30 53 57 50 40 36 103 108 76 85 72 91 117 109 100 53 49 37 74
141 157 139 183 111 87 84 72 63 65 39 37 41 46 44 164 83 62 84 67 73 43 34 33 21 24 37 35 42 30 65 59 70 26 108 55 75 69 56 45 31 71 261 318 350
81 189 190 187 164 166 100 91 96 93 47 53 70 58 57 58 80 96 50 69 68 61 50 31 40 46 41 51 54 137 136 134 130 105 130 167 151 69 -3 33 319 428 496 429 326
123 128 233 219 161 170 122 85 147 130 105 109 93 69 99 134 176 66 57 60 65 75 38 27 55 32 95 231 207 162 89 107 106 83 188 113 80 26 158 307 422 496 431 268 155
113 97 229 283 232 155 181 99 271 253 166 48 57 164 158 167 99 65 95 93 70 48 2 67 27 82 185 119 123 113 92 85 100 106 139 87 56 77 268 396 386 349 271 180 78
100 85 215 295 267 292 176 219 289 331 206 193 93 117 162 218 78 59 105 60 78 51 50 80 87 236 138 111 88 69 86 131 137 84 64 35 61 187 123 221 267 223 155 31 -36
94 91 252 422 336 223 256 137 209 292 66 118 122 170 150 168 147 32 123 39 74 57 62 118 153 135 111 101 105 120 104 165 70 82 116 117 138 70 230 302 260 136 15 -40 -61
109 94 383 501 208 280 181 254 130 40 201 99 87 131 148 234 182 142 158 123 85 59 140 115 125 107 124 101 147 108 126 70 43 48 47 19 94 180 276 280 145 104 6 -12 7
97 103 409 319 314 202 294 291 328 235 260 134 153 173 209 167 171 172 188 98 113 90 123 42 135 97 61 111 56 50 61 43 12 -12 73 7 27 273 203 157 116 42 39 26 9
82 136 494 506 454 427 370 363 291 372 183 197 162 160 116 128 119 200 131 123 146 173 99 69 88 101 96 84 35 52 68 103 110 117 84 65 68 285 213 187 60 57 46 15 3
123 182 405 568 514 399 377 363 273 177 202 185 109 133 166 121 105 143 125 125 67 165 178 122 203 86 82 111 207 121 80 96 171 159 102 36 136 244 169 64 66 54 52 40 28
113 376 605 597 522 462 432 362 276 279 146 253 156 93 131 118 179 149 107 86 126 96 192 170 232 256 104 81 90 110 72 99 84 43 59 61 205 186 168 115 70 60 53 32 26
490 777 697 504 463 384 311 269 179 197 201 163 156 173 174 185 243 218 187 124 215 190 199 264 244 157 101 58 17 23 99 96 73 108 125 137 104 167 133 103 65 29 25 29 18
825 853 725 478 436 423 344 261 189 135 176 122 132 85 85 177 174 213 156 209 205 95 131 146 203 161 103 56 50 34 47 85 109 106 141 106 153 105 48 54 31 4 11 17 15
1039 737 450 615 680 382 294 264 165 84 121 120 74 282 249 156 102 121 147 180 135 105 144 141 145 198 28 86 82 137 202 186 193 142 183 112 88 89 70 34 16 7 21 27 31
913 798 496 433 474 349 270 241 231 68 145 200 277 89 68 139 125 120 91 138 139 87 156 96 142 172 115 79 54 84 143 97 114 92 75 121 151 107 44 31 14 10 17 9 30
764 578 450 350 370 232 277 161 236 230 82 31 63 31 113 130 142 98 232 177 98 111 131 137 136 121 166 137 170 178 169 210 149 140 151 89 36 45 41 16 13 24 -1 3 18
460 375 464 195 356 229 239 194 128 79 72 67 144 83 178 151 163 118 224 120 88 76 66 111 119 63 53 61 87 113 124 168 92 58 83 66 64 70 28 6 1 -12 5 12 13
399 283 125 223 324 281 331 180 271 361 357 354 300 222 77 209 138 124 160 90 123 88 54 38 112 66 43 17 135 82 63 63 38 39 38 60 59 62 11 1 41 30 12 14 6
542 348 438 113 331 290 293 258 285 353 310 161 126 207 269 191 130 81 93 44 47 70 39 45 73 51 14 132 121 47 59 89 117 104 33 46 56 26 21 34 51 35 24 23 3

GFSSW_con_3kmhel_141.txt.gz
Helicity
44 34 35 33 29 26 26 44 48 47 42 40 50 69 75 77 72 37 35 27 19 15 26 92 96 84 46 85 39 64 85 38 -10 80 17 2 -6 97 172 304 257 180 134 64 41
56 41 37 33 38 42 34 32 42 45 48 48 48 65 68 73 27 21 34 25 -1 34 43 67 108 125 74 28 63 100 77 30 78 -29 -9 19 27 43 115 180 111 122 164 89 48
50 44 46 37 42 37 41 39 30 33 45 53 63 65 68 64 41 42 9 -14 3 16 14 41 59 71 64 76 34 25 97 58 42 -7 11 -47 -0 17 65 69 96 104 79 43 13
60 64 62 51 54 47 39 45 36 30 30 29 71 80 109 34 64 43 -14 -22 -5 19 45 38 43 64 65 62 74 62 24 67 13 -0 30 31 37 45 49 61 54 55 46 58 62
69 101 70 66 51 56 46 46 35 35 30 29 47 105 67 58 41 37 11 -8 4 32 38 60 71 73 82 67 60 37 58 85 78 68 90 78 68 54 93 120 72 61 88 46 23
133 103 88 103 57 53 58 59 45 33 38 42 36 82 33 54 63 34 11 17 35 59 59 78 101 97 72 58 76 56 33 26 19 3 48 87 74 75 83 40 61 42 25 70 263
150 131 110 99 87 73 37 49 61 48 52 59 43 36 24 26 64 42 35 56 65 71 66 112 91 98 99 66 80 29 47 38 28 66 56 99 69 49 35 17 46 181 273 304 314
133 127 110 121 114 83 72 93 72 74 67 58 46 49 31 33 97 96 40 40 58 25 60 76 83 62 62 50 51 39 62 59 34 -10 29 130 72 56 90 119 279 296 354 371 338
141 113 152 150 141 119 137 108 89 68 89 58 52 55 21 63 68 56 54 20 53 57 41 43 59 53 74 76 81 78 82 72 95 40 81 102 83 119 53 99 286 404 412 348 321
159 124 123 169 169 143 173 148 120 131 138 70 60 65 60 56 40 33 56 71 59 48 57 70 75 89 94 122 72 98 109 108 118 117 89 161 191 176 289 404 401 369 352 327 286
139 128 84 168 232 210 202 100 157 165 100 108 56 88 149 17 102 78 79 90 63 77 70 83 103 67 126 129 129 80 105 110 45 69 150 186 156 184 244 381 388 325 284 265 245
144 132 80 136 227 225 171 94 81 117 101 26 34 45 55 91 112 69 99 97 119 83 92 148 81 119 114 117 120 118 95 52 105 120 152 170 97 174 327 360 282 210 166 150 129
136 134 83 190 236 232 200 140 119 43 50 1 104 88 144 145 143 91 114 101 116 106 103 130 86 125 125 103 111 119 92 110 152 104 88 110 175 301 364 324 236 163 92 100 102
98 127 107 303 185 206 264 156 123 47 126 81 22 76 188 279 260 110 203 151 138 108 88 128 57 136 121 110 111 134 89 211 171 170 145 128 197 200 321 306 233 143 105 19 15
98 120 226 178 150 148 106 155 63 106 299 119 136 113 103 292 241 41 180 193 140 128 161 140 124 162 132 136 101 122 133 134 105 93 144 44 181 330 288 239 152 101 67 36 -2
85 130 141 90 176 128 139 114 181 255 329 284 167 170 184 203 186 174 290 275 157 116 88 90 106 146 91 96 116 104 89 89 93 143 227 122 153 273 268 188 134 98 67 48 30
66 110 161 232 199 220 183 270 278 337 173 217 245 220 127 272 133 269 327 285 212 191 138 102 74 132 106 148 78 102 170 207 261 300 168 141 235 277 160 108 105 90 40 12 2
72 86 99 207 227 311 273 292 294 196 206 154 133 144 150 187 131 209 212 181 70 113 205 140 166 157 187 120 237 125 132 210 271 273 176 106 245 238 214 130 84 56 28 29 35
64 142 167 240 304 373 385 253 294 231 133 75 98 166 110 165 213 168 171 104 97 101 225 216 159 202 172 114 132 183 148 120 168 122 161 160 194 213 169 131 105 74 84 56 34
163 227 192 305 395 378 342 217 204 176 86 171 151 150 162 132 166 220 208 132 86 95 173 225 335 252 233 146 62 125 144 176 150 184 157 161 167 215 171 162 98 75 50 48 27
246 320 301 390 488 462 384 338 214 161 98 134 103 209 166 158 127 272 262 173 148 427 342 177 233 216 274 121 102 131 159 146 157 172 140 153 175 133 95 88 58 45 25 22 6
509 532 438 787 649 475 398 277 257 119 144 137 135 132 286 145 198 227 239 185 287 352 259 197 189 251 178 77 91 210 182 185 177 161 179 166 169 141 121 60 34 21 6 -1 -2
626 605 442 741 475 511 458 314 204 118 109 167 199 155 66 102 234 282 217 146 163 201 178 204 206 273 244 235 138 118 169 159 149 141 118 189 196 93 54 29 34 22 -8 -13 -7
1033 890 762 390 451 396 464 348 248 166 105 108 123 166 168 190 390 284 280 176 208 216 225 235 246 215 212 194 147 150 150 202 167 138 128 126 131 86 69 52 25 -13 -29 -31 -26
705 948 817 513 434 433 382 304 210 217 152 93 201 248 345 233 261 240 271 274 243 193 217 197 170 143 163 111 146 166 135 199 143 128 99 124 142 80 42 27 -3 -25 -35 -21 -20
423 555 451 302 356 393 307 245 120 84 216 170 197 205 224 248 153 223 354 254 163 149 131 142 150 116 96 127 121 106 103 117 92 105 104 108 103 55 26 34 80 50 16 1 3
103 317 471 221 359 257 164 159 55 60 160 189 173 152 36 87 143 166 214 241 97 124 91 130 150 133 107 133 155 108 74 158 205 137 107 76 98 68 50 112 98 59 35 37 35

GFSSW_con_3kmhel_144.txt.gz
Helicity
28 24 16 21 25 50 35 41 41 57 78 72 77 72 66 52 58 13 28 26 30 32 31 41 45 91 58 87 106 119 95 66 76 102 94 22 9 18 41 89 133 183 169 79 43
46 50 31 17 24 44 35 48 39 45 64 81 96 76 59 61 8 26 17 28 29 31 57 72 88 107 93 100 136 126 82 52 81 141 13 43 -38 -43 26 81 64 144 115 56 24
56 57 64 57 31 35 45 55 61 55 46 59 82 99 98 30 44 51 19 22 0 11 18 41 68 69 88 93 109 103 61 82 130 72 -6 -40 -17 -72 -21 -11 24 79 102 169 148
76 70 66 51 59 49 52 54 56 59 68 59 68 80 129 26 78 41 5 0 -8 20 53 62 76 77 72 73 130 85 38 31 28 70 32 -11 -33 -24 -2 52 102 107 283 359 310
89 74 73 39 42 50 54 64 57 56 61 60 58 72 32 57 37 22 15 3 13 34 62 70 97 88 73 79 94 81 73 65 29 32 43 46 39 34 159 164 206 398 384 362 317
105 94 93 79 74 63 63 46 60 71 68 84 76 58 33 46 29 26 13 35 34 49 79 83 57 65 59 61 78 81 31 27 -5 0 46 56 45 79 162 270 371 338 301 281 271
97 117 106 114 115 85 65 68 55 73 79 94 75 30 59 24 21 5 41 31 33 51 72 87 55 67 61 59 81 58 49 47 44 42 49 109 68 73 170 284 304 308 249 240 255
125 101 119 121 112 91 82 66 44 58 76 75 68 44 31 33 29 68 38 43 37 44 60 75 58 46 49 49 72 65 75 78 125 95 40 75 86 235 255 326 328 298 250 242 248
152 122 99 128 117 105 98 133 76 83 82 56 58 73 31 69 55 33 42 25 40 38 51 50 47 39 59 70 80 94 100 115 142 117 108 30 183 263 238 278 303 275 261 263 255
153 135 96 96 135 186 182 105 81 47 66 40 113 111 70 54 54 44 43 39 59 66 68 72 72 74 101 107 76 115 113 145 141 147 141 155 262 271 259 279 259 235 252 231 205
137 133 115 83 162 205 191 118 116 102 109 87 99 95 153 152 98 57 67 96 93 86 73 88 123 62 57 100 79 87 109 121 96 75 143 232 300 347 353 381 358 308 261 213 227
137 140 134 108 162 193 198 183 148 105 150 93 80 117 67 121 169 116 125 101 123 87 95 133 88 60 112 116 94 103 133 110 77 84 136 209 240 206 247 228 229 231 208 202 206
114 138 133 141 152 186 207 147 111 48 103 29 117 93 122 118 106 129 156 122 117 108 101 152 87 146 124 129 127 131 132 109 111 141 126 175 220 257 271 254 226 170 134 138 143
89 123 121 159 143 142 155 82 79 54 165 76 80 85 198 227 139 254 195 213 158 91 99 117 54 69 111 132 121 127 90 133 139 154 148 211 239 333 301 286 196 139 130 109 100
87 119 108 98 96 83 61 39 86 105 270 99 120 113 150 304 270 138 237 227 219 190 215 156 149 168 208 164 144 122 137 128 129 145 180 140 229 348 303 245 170 140 124 113 81
81 124 75 170 157 97 74 95 152 276 259 211 91 107 195 145 280 267 218 241 175 182 139 128 149 170 115 111 97 128 135 140 133 178 247 100 260 338 311 220 155 137 111 97 87
76 91 149 175 157 97 120 176 277 384 316 219 215 142 108 118 111 185 180 208 297 291 168 136 80 146 151 158 143 166 218 229 241 312 299 178 323 342 214 168 125 122 107 86 73
34 48 114 132 142 160 183 283 357 211 185 203 224 197 175 221 171 134 185 191 249 227 221 184 212 138 197 184 147 148 214 212 210 279 243 223 322 243 148 90 94 88 84 74 58
37 135 171 171 127 164 292 265 316 246 190 155 107 207 205 214 151 159 224 213 217 185 176 168 172 126 124 226 196 171 231 109 237 184 208 235 250 159 129 99 101 91 88 68 73
139 158 130 198 150 260 324 247 286 193 234 169 171 162 162 180 186 211 238 169 194 130 145 179 157 150 204 225 193 161 186 277 260 201 185 191 169 173 118 130 98 72 78 81 72
274 258 143 216 235 363 449 497 317 188 174 183 164 198 155 173 143 165 174 154 35 86 121 102 162 181 261 295 186 183 203 260 198 211 189 197 145 121 134 112 95 83 53 52 62
398 344 164 308 492 508 472 433 336 250 181 140 113 93 86 204 165 150 162 151 150 202 242 209 226 218 225 109 103 140 169 233 223 192 170 154 128 159 137 91 74 37 7 6 23
349 404 147 366 527 551 455 397 300 218 176 102 135 116 138 168 246 134 182 221 171 277 270 263 208 228 277 197 186 199 241 283 256 199 138 154 122 136 140 81 68 65 36 26 26
285 334 490 467 438 397 435 355 288 233 190 152 108 104 108 126 232 224 236 255 229 245 242 232 238 193 146 183 239 229 249 226 220 194 149 139 147 128 91 70 61 60 32 29 14
390 384 511 475 341 350 330 310 289 261 157 117 66 50 116 142 189 171 273 378 403 281 337 325 199 139 107 118 216 183 232 213 169 141 133 97 121 130 82 61 55 26 20 40 16
289 313 426 484 520 517 535 313 153 225 188 57 77 74 134 153 247 248 331 413 418 414 378 299 181 94 100 133 212 201 154 144 136 152 157 133 126 114 79 158 105 82 78 59 19
178 126 230 334 319 338 569 432 157 160 138 53 6 131 134 171 190 177 254 327 354 389 191 111 109 73 105 164 177 155 110 147 174 157 141 126 116 124 142 158 126 123 98 62 32

GFSSW_con_3kmhel_147.txt.gz
Helicity
41 40 36 46 54 56 53 48 35 44 59 69 73 81 69 74 72 27 38 27 35 40 45 43 49 73 61 84 79 86 102 80 70 98 144 81 127 49 40 69 69 11 176 154 247
46 41 47 72 51 69 80 69 54 62 59 42 75 97 84 70 51 58 28 32 55 66 70 82 81 83 80 103 97 113 98 33 75 88 84 80 67 61 86 71 66 101 284 303 318
59 67 59 53 61 62 77 73 92 80 48 60 68 75 76 36 55 64 30 39 52 45 43 58 52 52 64 90 103 107 68 73 87 81 70 66 62 1 45 94 108 71 199 329 405
63 72 70 62 53 58 56 87 72 84 71 66 73 72 55 16 85 41 6 7 16 19 44 53 55 61 66 84 92 78 61 74 65 84 70 10 1 14 115 16 139 228 238 303 363
82 90 88 66 64 78 72 63 67 55 71 70 78 65 20 50 23 30 23 37 46 38 70 67 72 65 81 79 83 43 59 66 56 39 30 39 52 52 87 77 192 272 351 330 275
103 87 99 80 69 64 89 65 48 59 68 93 96 69 23 49 25 24 30 51 66 52 67 81 76 60 67 58 72 72 39 32 14 48 57 54 65 96 132 151 281 297 279 253 230
104 87 83 80 86 76 64 54 59 64 74 63 71 29 30 34 62 45 27 33 41 43 55 64 58 79 56 58 76 46 24 50 71 65 101 105 275 300 243 228 299 249 200 176 187
148 97 73 87 96 97 98 59 66 51 78 67 51 21 -3 39 55 43 60 44 47 53 60 51 47 58 66 60 68 57 48 85 113 122 136 158 227 287 252 199 247 250 223 227 225
147 149 108 78 90 105 110 81 69 85 72 46 48 43 10 83 39 39 62 65 55 43 63 54 60 77 87 86 78 78 59 82 166 212 162 183 204 247 262 259 279 255 239 222 203
163 160 160 120 106 119 127 120 84 85 21 35 80 83 107 85 48 35 49 62 66 77 87 90 94 104 114 124 62 85 108 106 145 194 221 272 254 263 296 296 273 241 216 188 192
147 153 154 134 119 148 142 122 110 63 107 96 163 162 192 138 76 103 88 108 104 114 98 115 117 95 60 83 110 114 113 111 127 139 201 229 290 271 293 309 287 273 271 282 232
146 166 151 121 142 137 158 158 135 154 63 94 85 119 102 132 156 141 112 85 100 105 144 153 103 63 97 113 107 96 117 99 126 130 200 220 258 256 266 288 300 321 290 258 266
126 163 129 127 138 163 155 145 119 108 84 10 139 167 154 142 150 150 143 154 125 122 137 175 79 129 143 123 122 125 154 132 139 176 221 256 231 236 274 266 281 252 199 195 186
102 127 112 77 112 102 118 104 93 81 86 20 46 65 192 280 177 206 200 204 138 100 135 117 90 76 134 181 177 168 107 124 151 187 161 141 160 177 203 234 244 231 215 186 160
92 81 63 89 86 85 94 71 88 105 188 90 91 95 77 194 249 109 218 264 144 194 193 155 116 102 125 175 176 135 146 157 173 166 182 227 205 203 250 208 224 219 180 133 116
82 63 105 139 120 114 84 75 78 216 208 239 139 112 144 59 140 188 189 216 177 205 181 153 172 184 155 147 191 171 222 230 215 204 193 212 209 139 176 190 207 158 126 135 122
102 84 98 118 118 96 92 154 262 260 248 156 167 136 100 91 98 178 125 159 184 219 155 178 109 148 151 195 217 252 275 243 249 270 210 177 205 313 247 172 124 148 141 103 100
96 106 103 124 126 112 154 289 283 234 297 265 214 191 103 122 143 155 221 190 178 244 207 138 194 141 200 237 203 200 207 233 186 209 183 269 244 325 224 128 104 128 125 103 60
96 140 166 113 99 128 211 270 320 320 247 262 183 175 180 158 131 104 149 179 178 238 215 146 141 130 107 235 230 184 192 148 194 234 255 285 265 172 144 127 153 166 132 97 82
138 157 179 124 136 205 236 245 294 293 278 229 169 156 183 185 190 178 149 128 161 154 269 180 126 111 110 155 197 197 108 248 297 242 256 289 220 172 80 94 129 115 118 77 81
148 158 142 188 224 282 360 455 271 352 276 258 237 209 160 137 151 205 139 108 69 136 191 130 177 156 154 193 220 253 222 293 270 289 246 188 113 91 106 94 99 101 75 70 52
211 196 78 202 344 367 366 503 335 292 244 279 245 197 179 132 138 141 159 141 64 145 124 183 153 123 124 113 94 137 207 261 307 239 218 176 129 132 118 104 111 101 55 24 50
283 252 71 175 366 354 337 244 227 336 350 296 258 246 172 97 83 112 98 112 98 124 106 214 193 170 229 205 157 193 197 189 217 183 160 167 131 112 117 119 88 78 64 66 54
228 248 261 189 374 259 240 247 303 364 260 246 260 161 146 111 123 116 119 157 236 177 178 203 243 220 176 159 213 224 229 201 187 207 176 157 125 92 74 83 85 92 77 62 43
242 198 255 313 379 350 295 362 238 232 207 265 180 150 108 89 112 144 122 176 282 192 199 220 125 100 68 160 148 149 129 206 255 187 162 91 89 69 85 92 73 74 73 84 75
234 240 299 319 345 331 343 368 425 404 248 148 87 150 94 83 105 77 119 187 199 303 331 345 185 195 184 141 130 148 166 224 207 201 190 150 110 74 133 164 129 109 102 75 56
179 177 199 201 240 350 345 309 469 369 186 170 98 96 18 -41 44 53 121 152 118 241 371 443 401 302 184 160 220 189 175 180 207 183 193 143 90 158 151 154 142 119 93 79 64

GFSSW_con_3kmhel_150.txt.gz
Helicity
44 39 45 30 37 49 47 46 47 59 56 56 59 42 53 77 59 25 53 36 31 33 35 29 51 71 61 66 55 50 70 65 62 113 144 139 197 109 49 133 156 140 153 148 194
54 39 37 58 67 57 56 58 60 71 56 60 57 70 62 57 44 55 37 42 50 59 53 57 70 86 87 76 63 78 75 32 57 120 125 129 165 157 164 156 141 153 255 260 334
70 52 63 66 63 73 67 71 60 70 90 82 66 82 83 23 38 68 51 63 68 48 35 29 42 60 92 89 81 66 68 52 72 73 84 90 135 144 137 215 177 170 207 296 361
85 74 87 78 83 73 69 69 77 95 89 95 89 78 88 19 74 55 34 31 22 3 22 32 63 79 96 104 81 72 61 64 61 80 53 37 133 171 211 146 123 188 229 265 306
85 82 78 77 90 79 88 84 92 77 65 80 85 89 22 66 38 49 30 34 37 40 59 67 76 71 105 91 85 69 72 63 54 61 37 137 115 83 185 169 176 211 255 277 266
113 115 96 89 89 78 93 80 83 87 59 42 45 71 -4 66 43 44 40 40 54 70 81 83 83 65 90 103 93 70 43 41 41 45 52 171 177 145 146 158 209 214 223 233 246
157 124 120 106 89 70 59 53 59 51 46 63 63 2 -21 32 65 78 56 42 36 48 58 65 67 88 72 97 78 62 28 59 47 60 70 251 248 271 198 211 235 247 231 202 189
153 138 86 95 99 88 73 60 65 46 52 36 34 -11 -27 40 55 51 66 58 43 47 54 57 68 68 74 70 83 74 65 84 98 80 149 159 153 253 250 233 243 246 224 193 191
178 182 169 121 112 112 88 91 85 78 64 43 30 36 -14 72 57 74 66 89 94 65 70 54 73 86 99 104 109 103 92 78 120 147 151 190 156 229 253 224 219 211 199 192 184
179 175 165 146 117 119 122 106 98 97 88 70 82 71 74 74 62 79 64 95 106 104 104 107 125 127 125 131 94 78 91 89 106 144 218 228 189 194 230 219 214 196 195 207 213
181 169 154 162 151 141 138 122 128 92 104 110 97 81 91 94 70 98 73 110 113 119 104 114 137 95 83 89 127 119 111 112 103 143 158 188 216 201 226 263 282 276 267 260 238
158 150 141 117 117 139 151 140 147 98 86 63 59 115 100 116 124 123 68 109 111 121 110 148 123 85 115 149 130 119 115 87 92 121 163 151 196 226 228 273 271 269 247 231 209
138 145 119 119 121 155 147 141 117 72 61 27 89 136 143 190 160 154 129 122 86 86 93 142 106 104 109 166 185 148 134 119 125 164 185 191 187 222 265 290 279 269 234 216 222
119 122 99 88 164 127 133 111 95 66 98 -4 40 67 118 179 180 170 210 205 165 96 90 82 72 105 99 123 144 141 111 108 137 162 147 150 136 165 234 245 252 252 255 227 184
85 70 76 102 93 107 86 61 56 89 186 102 126 53 41 39 113 64 126 288 212 201 188 154 105 74 97 111 103 110 110 118 159 191 174 168 197 168 257 196 198 205 187 153 115
70 79 93 121 110 85 63 69 100 228 168 210 119 87 65 8 70 90 96 134 127 182 203 155 131 98 76 99 118 160 242 270 245 211 230 195 242 134 164 157 194 167 150 114 104
72 66 92 100 141 117 100 141 246 219 202 138 89 86 80 74 75 117 111 133 149 178 175 163 132 168 172 180 196 273 301 277 286 340 261 184 153 245 172 167 170 177 162 129 105
115 84 112 103 135 134 171 263 236 188 195 253 209 116 22 41 50 65 126 127 115 209 195 120 137 77 196 221 245 224 275 292 198 217 182 221 222 230 204 215 226 210 145 129 115
171 158 149 94 102 156 226 273 234 187 158 197 164 104 116 114 113 116 113 148 133 174 201 138 139 97 98 145 199 261 242 218 215 205 202 180 193 151 168 159 151 154 147 132 105
180 177 134 54 102 195 246 229 204 190 210 149 101 92 96 91 153 187 150 123 108 142 238 152 164 91 96 109 156 158 208 293 300 262 236 212 161 134 61 111 111 100 91 75 79
194 181 88 95 163 234 264 250 208 186 196 142 142 134 128 118 110 160 166 157 121 92 130 128 215 151 130 93 125 206 263 324 256 288 268 236 159 88 42 57 76 58 52 52 52
188 167 56 132 195 257 213 306 175 173 158 170 185 186 179 177 184 148 130 151 155 92 80 113 127 113 85 62 133 175 159 227 227 202 238 206 159 141 101 103 88 72 69 44 56
132 148 87 131 219 225 200 125 114 157 205 184 192 200 201 170 184 155 112 63 60 55 75 54 132 92 87 105 113 126 182 153 223 211 226 230 204 86 108 89 84 93 75 89 71
173 157 173 132 231 177 124 115 119 177 100 135 229 186 167 151 177 160 122 41 43 106 99 126 169 167 124 51 137 160 177 169 166 165 192 184 146 78 65 69 107 80 96 91 60
181 174 202 221 249 171 182 196 108 168 159 148 142 128 188 142 102 111 83 93 84 103 188 226 241 188 123 87 112 133 129 75 109 115 133 89 179 95 63 88 79 103 101 95 74
243 245 234 224 230 183 178 185 135 175 179 182 159 191 117 80 107 96 52 52 53 78 126 160 143 198 111 131 97 39 43 14 62 89 141 185 107 109 147 190 155 102 110 94 73
252 255 203 186 239 215 215 190 136 164 145 165 267 196 133 83 56 57 39 14 44 54 130 188 221 172 126 138 171 81 122 92 156 198 215 240 86 143 162 129 127 142 108 96 79

GFSSW_con_3kmhel_153.txt.gz
Helicity
37 39 39 37 45 39 43 47 39 46 48 56 61 70 69 76 44 26 56 35 30 35 28 12 44 42 43 51 45 46 87 90 86 116 133 162 212 186 150 166 173 175 178 160 179
30 39 39 39 41 50 58 51 44 40 52 49 68 73 72 47 35 64 37 44 52 51 42 61 57 58 59 57 63 79 74 65 64 108 138 160 192 175 176 211 220 197 208 204 227
39 33 39 47 59 69 65 58 48 48 60 69 72 114 75 22 40 65 43 69 69 53 36 48 64 60 73 67 77 71 85 73 85 80 84 126 163 149 183 251 214 191 205 227 259
65 67 55 61 69 74 66 64 81 90 76 76 60 99 87 22 85 32 16 25 31 14 43 61 79 82 81 71 71 72 87 91 69 99 95 132 144 192 236 184 171 195 204 241 287
86 69 94 70 65 71 60 69 75 94 85 78 85 93 9 69 59 33 20 29 19 11 29 45 68 69 63 69 80 64 77 83 56 69 109 149 176 157 217 202 218 221 241 262 251
101 88 94 93 71 59 56 62 66 54 68 66 34 22 -3 72 40 41 33 33 44 48 62 75 70 72 83 86 97 84 77 72 67 89 126 199 199 167 185 200 229 243 260 262 239
173 123 112 89 92 103 80 52 53 59 73 67 42 -24 29 25 49 39 41 34 29 34 47 57 59 74 79 86 101 99 82 84 68 85 141 209 232 249 222 230 245 250 246 236 208
175 207 145 126 110 93 96 64 57 62 68 74 49 23 11 42 39 47 59 69 46 44 43 57 64 64 74 79 112 105 96 93 110 106 122 173 130 189 187 209 230 220 206 193 188
180 173 146 115 100 116 100 72 80 70 52 54 57 66 25 82 59 87 84 100 88 69 76 67 72 78 76 91 99 125 108 98 128 143 123 102 123 152 170 179 202 209 198 174 164
156 157 148 132 127 111 98 94 87 75 90 72 101 87 80 76 57 85 63 97 114 92 91 93 94 97 86 95 90 80 111 125 143 142 170 152 152 148 174 190 187 181 180 187 205
160 155 150 139 109 112 109 84 85 71 109 83 119 102 94 97 79 73 78 89 93 135 128 103 113 88 69 86 111 102 114 119 118 171 186 161 155 157 191 202 191 192 190 191 192
134 129 111 108 119 116 129 109 99 92 75 40 37 69 67 111 136 125 101 112 122 134 132 128 106 82 55 80 86 112 125 106 96 148 140 139 143 163 168 197 193 190 196 217 223
123 121 96 107 126 151 118 120 117 91 70 64 119 135 109 118 132 105 154 175 155 164 111 107 94 93 49 76 109 120 129 109 98 99 139 121 132 186 205 233 236 248 255 253 271
107 102 108 118 153 128 128 106 99 61 111 51 91 101 76 102 120 70 134 178 198 125 140 116 104 86 106 104 73 111 87 88 108 124 132 109 120 135 165 214 223 256 275 253 231
99 98 122 139 131 123 99 70 61 85 152 112 90 26 24 17 72 86 48 125 123 147 158 164 137 133 123 100 129 109 86 92 120 149 143 130 148 110 132 146 153 227 235 204 190
79 118 124 141 134 99 69 70 103 213 214 209 113 93 85 42 67 53 70 95 65 72 100 99 131 131 112 97 54 102 166 181 189 178 175 127 119 71 117 113 177 256 216 166 125
92 90 107 126 146 101 100 150 256 259 211 160 142 92 63 64 43 54 69 87 103 130 117 108 73 106 139 110 160 117 155 216 192 216 226 173 126 156 129 118 106 166 167 151 151
80 90 109 125 134 115 160 242 271 208 232 202 148 107 78 55 45 52 96 97 80 143 112 134 133 49 58 71 131 137 154 221 138 183 185 199 199 271 182 201 236 234 189 152 139
116 141 144 110 140 155 222 260 207 176 176 173 175 118 111 80 57 64 60 85 66 91 86 87 98 69 29 64 53 141 217 120 185 249 309 274 216 147 157 160 163 156 139 131 134
210 177 129 90 147 220 248 221 217 184 214 180 120 87 83 72 71 82 60 79 57 62 71 110 101 49 43 71 80 54 99 177 246 305 262 209 207 156 47 80 91 96 100 97 91
227 186 127 106 182 261 247 228 201 196 213 149 120 121 77 73 69 84 112 101 73 84 77 117 128 108 147 101 104 112 106 141 173 195 254 234 156 145 105 40 35 44 69 79 93
225 178 136 156 257 257 205 181 172 186 151 135 137 115 96 78 81 97 107 97 90 90 136 112 127 114 47 36 84 95 141 143 160 216 197 177 135 176 86 22 45 70 78 102 96
195 223 168 192 259 227 176 133 169 184 176 162 121 84 98 102 113 97 125 129 112 67 116 81 140 140 92 48 29 90 73 164 208 178 159 225 154 108 123 138 96 120 91 108 82
225 236 254 178 185 120 107 78 100 103 74 79 107 124 110 93 126 129 126 110 102 78 62 49 79 105 92 90 67 49 32 139 182 207 223 244 221 134 59 146 139 142 135 113 90
226 199 182 159 123 113 122 102 68 85 51 51 62 26 81 111 83 95 108 130 78 64 68 87 67 69 94 127 104 72 72 86 203 135 185 124 73 83 179 171 186 209 161 112 92
225 221 202 137 48 59 51 91 44 91 95 65 67 112 84 113 139 168 102 101 101 104 95 85 58 75 30 40 38 116 71 103 150 94 100 74 38 137 74 153 212 174 136 111 84
199 204 135 92 137 98 130 110 69 58 70 74 81 105 110 252 209 151 84 40 20 38 83 58 61 92 72 16 123 91 169 208 121 221 204 118 97 94 69 144 154 136 97 104 88

GFSSW_con_3kmhel_156.txt.gz
Helicity
38 39 32 44 45 37 41 40 36 42 43 47 54 69 70 64 8 9 68 44 26 35 16 25 16 27 11 28 42 40 45 62 89 82 164 166 165 183 159 180 180 185 196 168 162
43 36 31 33 32 26 24 28 25 17 23 44 62 78 75 51 15 71 50 43 40 49 41 63 58 30 22 29 39 40 37 89 116 136 173 192 186 175 156 202 218 198 193 191 189
47 43 34 26 30 33 31 32 31 30 22 35 64 93 82 18 6 67 46 42 40 33 41 43 45 35 30 33 52 52 72 71 102 147 150 176 185 160 155 198 205 214 200 198 200
38 39 49 55 52 45 36 33 41 33 48 43 48 95 92 12 96 68 24 8 11 13 32 47 52 46 43 49 56 47 60 84 104 147 135 170 118 142 192 186 157 169 182 196 233
55 56 48 66 56 60 47 29 40 56 47 53 38 79 8 50 91 52 24 23 18 18 41 42 58 48 59 48 40 30 53 65 90 143 158 132 168 162 182 161 193 206 218 233 234
80 56 55 65 58 63 57 72 65 57 38 42 46 49 -11 38 73 70 55 34 45 44 56 61 76 78 65 64 65 71 45 55 83 89 113 123 139 132 152 159 184 193 197 201 215
104 83 79 84 84 72 59 62 75 73 39 39 41 10 -1 29 74 63 46 58 44 46 43 63 64 66 81 76 85 69 52 43 52 93 127 154 130 176 183 194 209 206 208 204 205
146 166 131 125 112 90 86 50 84 59 55 46 31 15 30 86 74 41 45 52 64 56 55 49 44 50 63 74 51 48 49 38 130 91 146 110 107 177 178 193 214 225 216 200 192
167 170 156 124 101 87 68 79 70 65 49 41 26 34 9 48 87 87 47 72 77 79 78 61 59 70 43 52 49 52 53 47 72 67 97 80 162 185 179 198 202 190 178 167 156
167 138 140 128 105 89 94 75 80 60 52 61 66 33 51 109 87 62 58 48 79 82 68 63 71 76 68 67 128 174 105 68 57 56 53 54 122 116 105 118 148 154 154 150 142
117 128 127 127 107 116 95 70 36 32 56 60 113 102 142 146 100 71 70 65 77 70 83 110 93 96 144 137 146 126 105 102 113 112 101 78 67 94 108 104 130 134 142 152 161
136 121 116 111 113 107 89 96 120 133 62 30 26 36 85 127 121 74 121 86 93 66 120 102 98 134 112 80 81 84 97 90 76 80 89 70 73 98 101 97 121 146 172 173 163
118 122 100 97 115 110 75 101 96 60 54 59 101 109 109 114 129 70 126 157 128 136 115 123 176 145 104 78 79 61 62 60 78 115 61 87 86 117 108 156 180 198 221 206 205
97 105 101 97 106 114 102 86 78 52 63 46 99 131 84 93 131 79 97 144 193 157 138 152 185 110 101 100 77 94 79 64 87 104 119 105 125 136 93 87 153 195 216 223 228
91 99 103 111 139 113 125 102 77 69 156 108 109 52 51 44 85 89 30 75 71 98 145 179 136 147 151 146 145 145 118 97 90 107 117 118 146 107 169 130 101 147 180 234 241
99 128 136 146 140 129 100 89 93 147 184 148 112 108 97 49 90 81 53 32 66 50 47 33 65 82 55 100 96 139 86 98 114 138 184 120 131 78 123 93 110 198 236 243 216
86 127 139 156 167 119 106 139 224 244 187 164 175 148 122 109 74 53 44 49 90 107 102 109 67 35 48 81 48 74 104 180 173 228 221 171 227 153 221 206 171 181 175 205 169
115 152 177 194 146 130 160 255 245 251 264 191 154 106 122 116 95 69 86 79 64 88 131 163 146 82 67 31 127 121 101 214 249 183 159 169 209 177 239 238 241 224 218 198 180
165 175 165 152 155 148 187 339 311 292 268 214 181 129 109 81 89 82 76 69 81 29 90 127 93 90 47 51 67 111 135 46 121 161 243 207 147 135 159 175 199 184 198 196 164
177 172 164 120 135 158 222 319 309 248 230 194 113 111 113 82 71 78 78 96 57 7 10 108 112 107 98 76 55 64 104 159 173 295 230 208 145 175 79 86 128 172 135 126 112
202 191 163 140 166 233 300 238 249 218 246 199 151 119 102 87 72 78 103 84 78 90 94 81 86 69 101 83 52 93 116 145 146 220 261 246 208 175 147 52 62 72 85 71 88
249 291 190 142 250 238 196 197 222 215 193 150 139 98 76 83 79 71 71 63 114 133 108 104 177 163 90 65 78 74 107 105 141 180 139 114 119 142 90 56 29 41 107 111 103
262 289 179 195 214 172 176 149 172 143 122 101 87 72 89 79 87 36 52 84 87 110 144 155 194 186 108 59 40 76 52 58 62 99 92 131 159 162 153 152 170 183 138 125 136
262 240 230 211 195 125 126 101 103 82 66 83 98 109 66 57 51 90 75 70 94 138 158 158 155 170 153 93 135 90 49 45 48 98 68 90 87 159 196 217 148 120 149 183 160
298 187 180 169 198 187 137 120 88 78 52 58 84 12 37 70 59 36 35 68 84 71 93 158 163 103 64 17 30 33 30 33 53 54 92 65 97 164 184 254 182 315 176 178 148
247 236 240 130 102 89 130 100 75 55 66 53 34 47 68 75 14 104 165 159 153 132 147 89 104 100 114 53 43 29 20 20 44 13 15 79 28 66 140 104 157 195 174 165 136
211 254 169 124 121 118 75 52 46 39 44 -4 26 57 67 13 92 121 125 149 130 137 185 210 117 137 88 68 91 63 2 40 38 78 78 65 83 187 165 125 113 104 172 134 119